www.pogodaiklimat.ru

Погода и климат >> Архив погоды >> Украина >> Одесса


АРХИВ ПОГОДЫ в Одессе

Время (UTC), дата Ветер
(напр.,м/с)
 
Видим.   Явления Облачность Т
(С)
Тd
(С)
f
(%)
Тe
(С)
Тes
(С)
Комфортность P
(гПа)
Po
(гПа)
Тmin
(С)
Tmax
(С)
R
(мм)
S
(см)
21 14.02 С 5 10 км 10/10 360 м
[Sc]
-1.5 -4.2 82 -8 -8 прохладно 1022.4 1017.0
00 15.02 СЗ 6 10 км 10/10 420 м
[Sc]
-1.1 -3.7 82 -8 -8 по сезону 1023.6 1018.2
03 15.02 СЗ 5 10 км 6/6 1080 м
[Sc]
-1.0 -3.6 82 -7 -7 по сезону 1024.4 1019.0
06 15.02 СЗ 4 14 км 10/10 800 м
[Sc]
+0.1 -2.9 80 -5 -5 по сезону 1025.7 1020.3 -1.8 0
09 15.02 СЗ 5 18 км 10/4 800 м
[Sc Ac trans Ci fib]
+1.7 -2.4 74 -4 -3 по сезону 1027.7 1022.3
12 15.02 СЗ 7 14 км 6/4 1260 м
[Sc Ci fib]
+2.5 -2.1 72 -4 -3 по сезону 1027.8 1022.5
15 15.02 СЗ 7 20 км 4/4 720 м
[Sc]
+1.9 -2.8 71 -4 -4 по сезону 1029.2 1023.8
18 15.02 СЗ 7 45 км 8/4 960 м
[Sc Ac trans]
+0.8 -3.5 73 -6 -6 по сезону 1031.8 1026.4 +3.1
21 15.02 С 4 50 км 9/6 1230 м
[Sc Ac trans]
+0.2 -4.9 69 -5 -5 по сезону 1033.9 1028.5
00 16.02 СЗ 4 50 км 8/3 600 м
[Sc Ac trans]
-2.3 -5.9 76 -8 -8 по сезону 1035.0 1029.5
03 16.02 СЗ 3 50 км ясно -3.3 -7.2 74 -8 -8 по сезону 1035.3 1029.8
06 16.02 СЗ 3 35 км ясно -3.3 -7.2 74 -8 -8 по сезону 1035.8 1030.3 -4.0
09 16.02 С 1 20 км ясно +2.3 -7.3 49 +1 +8 тепло 1035.0 1029.6
12 16.02 С 3 30 км ясно +2.9 -6.4 50 -0 +3 по сезону 1034.1 1028.7
15 16.02 С 2 50 км ясно +0.8 -6.4 59 -2 -2 по сезону 1033.4 1028.0
18 16.02 З 2 20 км ясно -1.5 -5.1 76 -5 -5 по сезону 1033.0 1027.6 +3.5
21 16.02 З 1 4600 м дымка ясно -2.6 -4.2 89 -5 -5 по сезону 1032.6 1027.1
00 17.02 штиль 0 8000 м дымка ясно -2.1 -4.2 86 -3 -3 по сезону 1031.9 1026.4
03 17.02 ЮЗ 1 12 км ясно -2.1 -5.3 79 -4 -4 по сезону 1030.2 1024.8
06 17.02 ЮЗ 1 8000 м дымка 3/0
[Ac trans]
-0.3 -2.1 88 -2 -1 по сезону 1029.2 1023.8 -3.1
09 17.02 ЮЗ 3 15 км ясно +3.1 -3.7 61 -0 +5 по сезону 1028.1 1022.8
12 17.02 Ю 5 10 км 8/0
[Ci]
+2.0 -0.8 82 -4 -2 по сезону 1026.1 1020.8
15 17.02 Ю 2 28 км 10/0
[Ac trans Ci]
+2.1 -0.4 84 -1 -1 по сезону 1024.5 1019.2
18 17.02 ЮЗ 3 30 км 4/0
[Ac trans]
+2.5 -0.2 82 -2 -2 по сезону 1023.7 1018.4 +4.1
21 17.02 ЮЗ 3 40 км ясно +2.5 +0.1 84 -2 -2 по сезону 1022.9 1017.6
00 18.02 ЮЗ 2 35 км 6/3 600 м
[Sc Ac trans]
+2.5 +0.4 86 -1 -1 по сезону 1022.0 1016.7
03 18.02 Ю 2 17 км 8/4 600 м
[Sc Ac trans]
+1.3 +0.8 96 -2 -2 по сезону 1021.4 1016.1
06 18.02 ЮЗ 2 21 км 9/6 720 м
[Sc Ac trans]
+1.7 +0.6 92 -2 -2 по сезону 1021.5 1016.2 +1.1
09 18.02 Ю 2 19 км 10/8 660 м
[Sc Ac trans]
+2.7 +0.9 88 -1 0 по сезону 1021.4 1016.1
12 18.02 Ю 1 21 км 10/10 800 м
[Sc]
+3.6 +1.3 85 +2 +2 по сезону 1021.0 1015.7
15 18.02 Ю 2 15 км 10/10 720 м
[Sc]
+3.3 +1.5 88 0 0 по сезону 1021.2 1015.9
18 18.02 СЗ 1 6000 м дымка 10/10 500 м
[St]
+3.3 +1.5 88 +2 +2 тепло 1023.1 1017.8 +3.9
21 18.02 штиль 0 7000 м дымка 10/8 1020 м
[Sc Ac trans]
+2.7 +0.6 86 +2 +2 тепло 1024.2 1018.9
00 19.02 СЗ 2 10 км 10/10 960 м
[Sc]
+2.4 -0.3 82 -1 -1 по сезону 1025.5 1020.2
03 19.02 СЗ 2 5000 м дымка 10/10 870 м
[Sc]
+2.5 +0.4 86 -1 -1 по сезону 1026.4 1021.1
06 19.02 С 2 6000 м дымка 10/10 800 м
[Sc]
+2.7 +0.6 86 -0 -0 тепло 1027.8 1022.5 +1.9
09 19.02 СВ 2 7000 м дымка 8/3 300 м
[Sc Ac trans Ci fib]
+3.3 +1.2 86 0 +3 по сезону 1029.0 1023.7
12 19.02 Ю 1 6000 м дымка 10/4 900 м
[Sc Ac trans]
+3.2 +1.1 86 +2 +3 по сезону 1028.2 1022.9
15 19.02 Ю 2 10 км 8/4 870 м
[Sc Ac trans]
+2.6 -0.1 82 -1 -1 по сезону 1027.5 1022.2
18 19.02 Ю 1 6000 м дымка 4/0
[Ci fib]
+1.4 -0.5 87 -0 -0 по сезону 1027.0 1021.6 +4.2
21 19.02 СВ 1 2100 м дымка 4/0
[Ci fib]
-0.3 -1.2 94 -2 -2 по сезону 1026.0 1020.6
00 20.02 СВ 1 1900 м дымка ясно -0.6 -1.2 96 -3 -3 по сезону 1025.1 1019.7
03 20.02 СВ 1 2900 м дымка ясно -0.2 -0.8 96 -2 -2 по сезону 1023.4 1018.0
06 20.02 СВ 3 2100 м дождь 10/8 300 м
[Frnb As op]
+0.3 -0.3 96 -5 -5 по сезону 1022.2 1016.9 -1.2 0.3
09 20.02 В 4 1100 м слабый дождь 10/8 300 м
[Frnb As op]
+0.3 -0.3 96 -5 -5 по сезону 1020.2 1014.9
12 20.02 СВ 6 1100 м слабый дождь 10/8 300 м
[Frnb As op]
+0.8 +0.3 96 -6 -6 прохладно 1017.2 1011.9
15 20.02 С 4 700 м туман {дождь} ?/? +1.1 +1.1 100 -4 -4 по сезону 1015.5 1010.2
18 20.02 С 3 100 м слабая морось {дождь} туман ?/? +0.7 +0.7 100 -4 -4 по сезону 1014.7 1009.4 +1.2 10
21 20.02 штиль 0 100 м морось {туман} ?/? +0.9 +0.9 100 -1 -1 по сезону 1013.8 1008.5
00 21.02 С 2 1800 м слабый дождь {морось} 10/8 200 м
[Frnb As op]
+1.0 +0.7 98 -3 -3 по сезону 1012.7 1007.4
03 21.02 З 1 600 м туман {дождь} ?/? +0.8 +0.8 100 -1 -1 по сезону 1011.4 1006.1
06 21.02 З 1 700 м туман {дождь} ?/? +0.9 +0.9 100 -1 -1 по сезону 1011.2 1005.9 +0.6 1
09 21.02 ЮЗ 2 7000 м дымка {туман} 8/0
[Ci fib]
+4.4 +2.7 89 +2 +7 тепло 1010.3 1005.1
12 21.02 ЮЗ 3 18 км {туман} 10/0
[Ac und Ci fib]
+6.6 +1.7 71 +4 +6 тепло 1008.3 1003.1
15 21.02 З 3 18 км 10/0
[Ac und]
+5.2 +0.8 73 +2 +2 тепло 1007.3 1002.1
18 21.02 З 4 7000 м слабая морось 10/10 300 м
[St]
+3.9 +2.1 88 -1 -1 по сезону 1007.0 1001.8 +6.8 0.4

 

Местоположение метеостанции Одесса (Одесская область, Украина): широта 46.43 долгота 30.77 высота над уровнем моря 42 м.

В архиве по умолчанию представлена погода в Одессе за последнюю неделю. Архивные данные за месяц целиком и за предыдущие месяцы, начиная с января 2011 года, Вы можете получить, выбрав интересующий диапазон дат из раскрывающегося списка и нажав кнопку "Ввод!".

Внимание! Время в таблицах - всемирное. Для получения местного времени необходимо прибавить поправку, которая в Одессе равна 2 ч.

Смотрите также архив погоды в соседних городах и на ближайших метеорологических станциях:

Погода в Ильичёвске (Одесская область, Украина) (6 км)
Погода в Белгород-Днестровском (Одесская область, Украина) (41 км)
Погода в Очакове (Николаевская область, Украина) (64 км)
Погода в Сербке (Одесская область, Украина) (66 км)
Погода в Раздельной (Одесская область, Украина) (70 км)
Погода в Заставе (Одесская область, Украина) (72 км)
Погода в Сарате (Одесская область, Украина) (96 км)
Погода в Штефан Водэ (Молдова) (99 км)
Погода в Тирасполе (Молдова) (103 км)
Погода в Николаеве (Николаевская область, Украина) (112 км)

Пояснения к столбцам:

Ветер - указаны скорость ветра в м/с - средняя за 10 мин, порывы в срок и между сроками (в фигурных скобках) и направление, откуда дует ветер: С - северный, СВ - северо-восточный, В - восточный, ЮВ - юго-восточный, Ю - южный, ЮЗ - юго-западный, З - западный, СЗ - северо-западный.
Видимость - горизонтальная дальность видимости в метрах или километрах. При видимости от 1 до 10 км при отсутствии осадков обычно наблюдается дымка, при ухудшении видимости до 1 км и менее - туман. В сухую погоду видимость может ухудшаться дымом, пылью или мглою.
Явления - указаны атмосферные явления, наблюдавшиеся в срок или в последний час перед сроком; фигурными скобками обозначены явления, наблюдавшиеся между сроками (за 1-3 часа до срока); квадратными скобками обозначены град или гололедные отложения с указанием их диаметра в мм.
Облачность - указаны через наклонную черту общая и нижняя облачность в баллах и высота нижней границы облаков в метрах; квадратными скобками обозначены формы облаков: Ci - перистые, Cs - перисто-слоистые, Cc - перисто-кучевые, Ac - высококучевые, As - высокослоистые, Sc - слоисто-кучевые, Ns - слоисто-дождевые, Cu - кучевые, Cb - кучево-дождевые. Подробнее классификацию облаков см. в Атласе облаков (PDF).
T - Температура воздуха - температура, измеренная на высоте 2 м над землей.
Td - Температура точки росы - температура, при понижении до которой содержащийся в воздухе водяной пар достигнет насыщения.
f - Относительная влажность воздуха - влажноcть воздуха, измеренная на высоте 2 м над землей.
Te - Эффективная температура - температура, которую ощущает одетый по сезону человек в тени. Характеристика душности погоды. При расчете учитывается влияние влажности воздуха и скорости ветра на теплоощущения человека.
Tes - Эффективная температура на солнце - температура, которую ощущает человек, с поправкой на солнечный нагрев. Характеристика знойности погоды. Зависит от высоты солнца над горизонтом, облачности и скорости ветра. Ночью, в пасмурную погоду, а также при ветре 12 м/с и более поправка равна нулю.
P - Атмосферное давление - приведенное к уровню моря атмосферное давление.
Po - Атмосферное давление - измеренное на уровне метеостанции атмосферное давление.
Tmin - Минимальная температура - минимум температуры воздуха на высоте 2 м над землей.
Tmax - Максимальная температура - максимум температуры воздуха на высоте 2 м над землей.
R - Количество осадков - Количество выпавших осадков, мм. При наведении курсора мыши на число - период времени, за который выпало указанное количество осадков.
S - Снежный покров - Высота снежного покрова, см. При наведении курсора мыши на число - состояние снежного покрова и степень покрытия местности в баллах.